Location: Codford Saint Peter
(51.1597°N, 2.0531°W)
Time: 15:17:55
(UTC+00:00)

Envisat - Pass Details

Date: 05 February 2022
Orbit: 764 x 765 km, 98.2° (Epoch: 17 May)

Event Time Altitude Azimuth Distance (km) Brightness Sun altitude
Rises 04:44:19 0° 17° (NNE) 3,245 6.6 -27.6°
Reaches altitude 10° 04:46:43 10° 23° (NNE) 2,314 5.8 -27.2°
Maximum altitude 04:51:41 52° 100° (E) 951 3.7 -26.5°
Drops below altitude 10° 04:56:38 10° 176° (S) 2,299 5.4 -25.7°
Sets 04:58:59 0° 182° (S) 3,221 6.2 -25.3°
